Regional Weather Roundup
Issued by NWS

Home | Current Version | Previous Version | Graphics & Text | Print | Product List | Glossary On
Versions: 1 2 3 4 5 6 7 8 9 10 11 12 13 14 15 16 17 18 19 20 21 22 23 24 25 26 27 28 29 30 31 32 33 34 35 36 37 38 39 40 41 42 43 44 45 46 47 48 49 50
000
ASUS45 KPSR 061400
RWRAZ

ARIZONA HOURLY REGIONAL WEATHER ROUNDUP
NATIONAL WEATHER SERVICE PHOENIX AZ
700 AM MST MON JUL 06 2015

NOTE: FAIR INDICATES FEW OR NO CLOUDS BELOW 12,000 FEET WITH NO
SIGNIFICANT WEATHER AND/OR OBSTRUCTIONS TO VISIBILITY.

AZZ001>003-036-061500-
NORTHWEST ARIZONA

CITY           SKY/WX    TMP DP  RH WIND       PRES   REMARKS
KINGMAN        SUNNY     74  59  59 S5        30.10R
$$

AZZ004>008-015-016-018-061500-
NORTH CENTRAL ARIZONA

CITY           SKY/WX    TMP DP  RH WIND       PRES   REMARKS
GRAND CANYON   CLOUDY    62  53  72 NW3       30.31F
WILLIAMS       PTSUNNY   59  54  82 CALM      30.39R
PRESCOTT       MOSUNNY   63  58  83 NW8       30.23R
FLAGSTAFF      NOT AVBL
PAYSON         PTSUNNY   70  57  64 CALM      30.24R
PAGE           CLOUDY    78  51  38 VRB7      30.12R
$$

AZZ009>014-017-061500-
NORTHEAST ARIZONA

CITY           SKY/WX    TMP DP  RH WIND       PRES   REMARKS
WINSLOW        NOT AVBL
SAINT JOHNS    PTSUNNY   68  55  63 CALM      30.22R
WINDOW ROCK    MOSUNNY   64  55  72 CALM      30.28F
SHOW LOW       PTSUNNY   59  54  82 S9        30.28S
$$

AZZ023-061500-
GREATER PHOENIX AREA

CITY           SKY/WX    TMP DP  RH WIND       PRES   REMARKS
PHOENIX        PTSUNNY   80  68  66 SE6       29.95F
GLENDALE       PTSUNNY   75  73  94 CALM      29.98R
LUKE AFB       MOSUNNY   77  70  78 CALM      29.96R
DEER VALLEY    PTSUNNY   78  67  68 NE3       29.97S
SCOTTSDALE     LGT RAIN  80  66  62 CALM      29.99F
MESA-FALCON    PTSUNNY   79  64  61 W8        29.99F
MESA-GATEWAY   MOSUNNY   81  66  61 VRB5      30.02S
CHANDLER       LGT RAIN  82  68  61 VRB3      29.99F
$$

AZZ027-028-061500-
SOUTHWEST MARICOPA COUNTY AND PINAL COUNTY

CITY           SKY/WX    TMP DP  RH WIND       PRES   REMARKS
CASA GRANDE    MOSUNNY   79  70  73 CALM      30.00F
GILA BEND      FAIR      85  66  52 SE8       29.94F
$$

AZZ503-504-507>509-061500-
SOUTHEAST ARIZONA

CITY           SKY/WX    TMP DP  RH WIND       PRES   REMARKS
TUCSON         PTSUNNY   77  65  66 CALM      30.10R
DAVIS-MONTHAN  MOSUNNY   76  66  72 CALM      30.08R
NOGALES        MOSUNNY   72  64  76 SE6       30.17R
SIERRA VISTA   MOSUNNY   71  62  75 VRB1      30.21R
SAFFORD        PTSUNNY   72  67  84 CALM      30.07S
$$

AZZ020-021-025-026-031-061500-
SOUTHWEST ARIZONA

CITY           SKY/WX    TMP DP  RH WIND       PRES   REMARKS
YUMA           NOT AVBL
$$

CAZ031-033-041-043-047-048-061-061500-
SOUTHERN CALIFORNIA

CITY           SKY/WX    TMP DP  RH WIND       PRES   REMARKS
DOWNTOWN L.A.  CLOUDY    65  59  81 CALM      30.03R
L.A. AIRPORT   CLOUDY    64  60  87 NW6       30.04R
SAN DIEGO      CLOUDY    67  59  75 W6        30.05R
BURBANK        CLOUDY    65  58  78 S3        30.03R
ONTARIO        CLOUDY    65  58  78 SW6       30.04R HAZE
RIVERSIDE      CLOUDY    66  59  78 CALM      30.04R
PALM SPRINGS   SUNNY     79  58  48 N9        29.95R
EL CENTRO NAS  MOSUNNY   83  66  56 E6        29.91R
IMPERIAL       SUNNY     83  67  58 SE8       29.88R
BLYTHE         SUNNY     87  65  47 N5        29.91R
$$

NVZ020-UTZ003-061500-
SOUTHERN NEVADA-UTAH

CITY           SKY/WX    TMP DP  RH WIND       PRES   REMARKS
LAS VEGAS      NOT AVBL
SALT LAKE CITY MOSUNNY   74  56  53 SE6       30.10R
$$

NMZ009-TXZ055-061500-
NEW MEXICO-WEST TEXAS

CITY           SKY/WX    TMP DP  RH WIND       PRES   REMARKS
ALBUQUERQUE    PTSUNNY   69  59  70 W3        30.18R
EL PASO        PTSUNNY   76  60  57 SW14      30.06R
$$


........................KEY........................
SKY/WX - SKY CONDITION/WEATHER
TMP    - TEMPERATURE IN FAHRENHEIT
DP     - DEW POINT IN FAHRENHEIT
RH     - RELATIVE HUMIDITY IN PERCENT
WIND   - DIRECTION AND SPEED IN MILES PER HOUR (MPH)
VRB    - VARIABLE WIND DIRECTION
PRES   - MEAN SEA LEVEL PRESSURE IN INCHES OF MERCURY
         F - FALLING PRESSURE   R - RISING PRESSURE
         S - STEADY PRESSURE
VSB    - VISIBILITY IN MILES
HX     - HEAT INDEX IN FAHRENHEIT
WCI    - WIND CHILL INDEX IN FAHRENHEIT
TC     - TEMPERATURE IN CELSIUS WHICH IS ALSO KNOWN AS
         TEMPERATURE IN CENTIGRADE
AFB    - AIR FORCE BASE
         LUKE AFB IS LUKE AIR FORCE BASE
         DAVIS-MONTHAN IS DAVIS-MONTHAN AIR FORCE BASE
NAS    - NAVAL AIR STATION
         EL CENTRO NAS IS EL CENTRO NAVAL AIR STATION
N/A    - NOT AVAILABLE



USA.gov is the U.S. government's official web portal to all federal, state and local government web resources and services.